Location: Unspecified
(0.0000°N, 0.0000°E)
Time: 00:58:58
(UTC+00:00)

Tiros 4 - Visible Passes

Search period start: 13 June 2025 00:00
Search period end: 23 June 2025 00:00
Orbit: 681 x 790 km, 48.3° (Epoch: 11 June)

Date Brightness Start Highest point End Pass type
(mag) Time Alt. Az. Time Alt. Az. Time Alt. Az.
18 Jun 9.0 19:43:49 10° SSW 19:44:40 14° S 19:44:40 14° S visible
19 Jun 8.2 18:55:46 10° S 18:59:40 20° SE 19:00:34 19° ESE visible
19 Jun 9.1 20:38:37 10° WSW 20:40:19 20° WSW 20:40:19 20° WSW visible
20 Jun 7.1 19:49:16 10° SW 19:54:43 79° NW 19:58:04 24° NNE visible
21 Jun 7.0 19:00:20 10° SSW 19:05:38 57° SE 19:11:02 10° NE visible
21 Jun 9.8 20:46:45 10° W 20:49:49 15° NW 20:52:54 10° NNW visible
22 Jun 9.1 19:56:09 10° WSW 20:00:41 27° NW 20:05:16 10° N visible
